Location: The Saddle
(36.8333°N, 80.3417°W)
Time: 15:19:05
(UTC-05:00)

S-56A Canister/Altair - Pass Details

Date: 12 December 2023
Orbit: 639 x 2488 km, 38.9° (Epoch: 03 March)

Event Time Altitude Azimuth Distance (km) Brightness Sun altitude
Rises 08:25:04 0° 227° (SW) 4,623 11.4 9.3°
Reaches altitude 10° 08:28:48 10° 221° (SW) 3,331 10.8 9.8°
Maximum altitude 08:36:01 41° 154° (SSE) 1,386 9.9 11.0°
Drops below altitude 10° 08:41:09 10° 85° (E) 2,361 10.8 11.7°
Sets 08:43:23 0° 77° (ENE) 3,156 11.2 12.1°
